| time (UTC) | temp F | wind direction | speed knots | gust knots | rain 1hr in | rain 24hr in | rain mn in | humidity % | barometer mb |
| 20260507070042 | 37 | 313 | 4.3 | 7.8 | 0.00 | 0.13 | 0.00 | 73 | 1005.6 |
| 20260507064540 | 37 | 319 | 5.2 | 8.7 | 0.00 | 0.13 | 0.00 | 73 | 1005.7 |
| 20260507063040 | 37 | 311 | 6.1 | 7.8 | 0.00 | 0.13 | 0.00 | 73 | 1005.7 |
| 20260507061537 | 38 | 331 | 5.2 | 7.8 | 0.00 | 0.13 | 0.00 | 71 | 1005.9 |
| 20260507060019 | 38 | 321 | 6.1 | 9.6 | 0.00 | 0.13 | 0.00 | 69 | 1005.9 |
| 20260507054521 | 38 | 306 | 7.0 | 8.7 | 0.00 | 0.13 | 0.00 | 68 | 1006.0 |
| 20260507053121 | 38 | 323 | 7.0 | 9.6 | 0.00 | 0.13 | 0.00 | 68 | 1006.0 |
| 20260507051605 | 38 | 311 | 7.8 | 11.3 | 0.00 | 0.13 | 0.00 | 68 | 1006.0 |
| 20260507050041 | 38 | 300 | 8.7 | 13.9 | 0.00 | 0.13 | 0.00 | 68 | 1006.2 |
| 20260507044540 | 38 | 317 | 7.0 | 9.6 | 0.00 | 0.13 | 0.00 | 71 | 1006.2 |
| 20260507043024 | 38 | 302 | 6.1 | 9.6 | 0.00 | 0.13 | 0.00 | 72 | 1006.1 |
| 20260507041521 | 38 | 304 | 5.2 | 8.7 | 0.00 | 0.13 | 0.00 | 71 | 1006.1 |
| 20260507040002 | 38 | 313 | 5.2 | 9.6 | 0.00 | 0.14 | 0.00 | 69 | 1006.0 |
| 20260507034501 | 38 | 322 | 7.8 | 13.0 | 0.00 | 0.14 | 0.00 | 67 | 1005.9 |
| 20260507033042 | 38 | 312 | 6.1 | 9.6 | 0.00 | 0.14 | 0.00 | 68 | 1005.6 |
| 20260507031540 | 39 | 319 | 5.2 | 8.7 | 0.00 | 0.14 | 0.00 | 68 | 1005.8 |
| 20260507030021 | 39 | 306 | 6.1 | 9.6 | 0.00 | 0.14 | 0.00 | 66 | 1006.0 |
| 20260507024519 | 40 | 305 | 9.6 | 15.6 | 0.00 | 0.14 | 0.00 | 63 | 1005.9 |
| 20260507023059 | 40 | 304 | 9.6 | 15.6 | 0.00 | 0.14 | 0.00 | 62 | 1006.1 |
| 20260507021603 | 40 | 328 | 9.6 | 13.9 | 0.00 | 0.14 | 0.00 | 62 | 1005.8 |
| 20260507020059 | 40 | 324 | 8.7 | 15.6 | 0.00 | 0.14 | 0.00 | 62 | 1006.0 |
| 20260507014537 | 41 | 317 | 12.2 | 17.4 | 0.00 | 0.14 | 0.00 | 61 | 1006.0 |
| 20260507013037 | 42 | 304 | 7.8 | 12.2 | 0.00 | 0.14 | 0.00 | 65 | 1005.8 |
| 20260507011515 | 42 | 321 | 7.8 | 12.2 | 0.00 | 0.14 | 0.00 | 64 | 1005.8 |
| 20260507010059 | 43 | 328 | 8.7 | 12.2 | 0.00 | 0.14 | 0.00 | 63 | 1005.6 |
| 20260507004600 | 43 | 324 | 9.6 | 16.5 | 0.00 | 0.14 | 0.00 | 63 | 1005.2 |
| 20260507003040 | 44 | 333 | 10.4 | 18.2 | 0.00 | 0.14 | 0.00 | 62 | 1005.0 |
| 20260507001527 | 45 | 321 | 7.8 | 11.3 | 0.00 | 0.14 | 0.00 | 65 | 1005.0 |
| 20260507000008 | 45 | 329 | 5.2 | 10.4 | 0.00 | 0.14 | 0.00 | 68 | 1004.9 |
| 20260506234506 | 45 | 315 | 6.1 | 7.8 | 0.00 | 0.14 | 0.00 | 71 | 1004.8 |
| 20260506233102 | 45 | 311 | 4.3 | 7.8 | 0.00 | 0.14 | 0.00 | 73 | 1004.9 |
| 20260506231554 | 45 | 325 | 4.3 | 8.7 | 0.00 | 0.14 | 0.00 | 74 | 1004.6 |
| 20260506230026 | 45 | 294 | 5.2 | 8.7 | 0.00 | 0.14 | 0.00 | 79 | 1004.5 |
| 20260506224525 | 45 | 327 | 5.2 | 9.6 | 0.00 | 0.14 | 0.00 | 84 | 1004.2 |
| 20260506223005 | 45 | 323 | 6.1 | 11.3 | 0.00 | 0.14 | 0.00 | 87 | 1004.1 |
| 20260506221505 | 44 | 342 | 5.2 | 10.4 | 0.00 | 0.14 | 0.00 | 90 | 1004.0 |
| 20260506220048 | 44 | 302 | 5.2 | 10.4 | 0.00 | 0.16 | 0.00 | 91 | 1004.1 |
| 20260506214549 | 43 | 317 | 7.0 | 10.4 | 0.00 | 0.16 | 0.00 | 92 | 1003.9 |
| 20260506213028 | 44 | 308 | 7.0 | 13.0 | 0.00 | 0.16 | 0.00 | 92 | 1003.9 |
| 20260506211526 | 44 | 326 | 6.1 | 11.3 | 0.00 | 0.16 | 0.00 | 92 | 1003.9 |
| 20260506210006 | 44 | 351 | 3.5 | 6.1 | 0.00 | 0.21 | 0.00 | 92 | 1003.8 |
| 20260506204503 | 44 | 291 | 2.6 | 7.0 | 0.00 | 0.21 | 0.00 | 91 | 1003.9 |
| 20260506203043 | 45 | 277 | 1.7 | 7.0 | 0.00 | 0.21 | 0.00 | 91 | 1003.9 |
| 20260506201542 | 46 | 328 | 6.1 | 8.7 | 0.00 | 0.21 | 0.00 | 90 | 1003.8 |
| 20260506200021 | 46 | 271 | 1.7 | 5.2 | 0.00 | 0.21 | 0.00 | 89 | 1003.7 |
| 20260506194519 | 46 | 297 | 0.9 | 6.1 | 0.00 | 0.21 | 0.00 | 88 | 1003.8 |
| 20260506193058 | 47 | 218 | 0.9 | 6.1 | 0.00 | 0.21 | 0.00 | 86 | 1003.8 |
| 20260506191558 | 48 | 275 | 2.6 | 6.1 | 0.00 | 0.21 | 0.00 | 85 | 1003.7 |
| 20260506190044 | 49 | 325 | 3.5 | 7.0 | 0.00 | 0.21 | 0.00 | 85 | 1003.6 |
| 20260506184550 | 49 | 273 | 3.5 | 8.7 | 0.00 | 0.21 | 0.00 | 85 | 1003.4 |
| 20260506183052 | 49 | 327 | 7.0 | 10.4 | 0.00 | 0.21 | 0.00 | 84 | 1003.6 |
| 20260506181608 | 49 | 327 | 7.0 | 10.4 | 0.00 | 0.21 | 0.00 | 84 | 1003.4 |
| 20260506180037 | 48 | 311 | 4.3 | 7.0 | 0.00 | 0.21 | 0.00 | 83 | 1003.7 |
| 20260506174534 | 48 | 267 | 2.6 | 7.0 | 0.00 | 0.21 | 0.00 | 86 | 1003.5 |
| 20260506173044 | 48 | 294 | 0.9 | 4.3 | 0.00 | 0.21 | 0.00 | 87 | 1003.6 |
| 20260506171531 | 47 | 219 | 2.6 | 7.8 | 0.00 | 0.21 | 0.00 | 87 | 1003.7 |
| 20260506170013 | 47 | 315 | 2.6 | 7.8 | 0.00 | 0.21 | 0.21 | 85 | 1003.7 |
| 20260506164512 | 47 | 292 | 1.7 | 4.3 | 0.00 | 0.21 | 0.21 | 86 | 1003.8 |
| 20260506163112 | 48 | 317 | 2.6 | 5.2 | 0.00 | 0.21 | 0.21 | 88 | 1003.8 |
| 20260506161554 | 46 | 223 | 1.7 | 6.1 | 0.00 | 0.21 | 0.21 | 91 | 1003.6 |
| 20260506160055 | 45 | 199 | 2.6 | 5.2 | 0.00 | 0.21 | 0.21 | 92 | 1003.5 |
| 20260506154535 | 45 | 172 | 1.7 | 4.3 | 0.00 | 0.21 | 0.21 | 94 | 1003.4 |
| 20260506153050 | 44 | 135 | 0.9 | 2.6 | 0.00 | 0.21 | 0.21 | 95 | 1003.7 |
| 20260506151517 | 44 | 126 | 0.9 | 2.6 | 0.00 | 0.21 | 0.21 | 95 | 1003.7 |
| 20260506150016 | 44 | 138 | 2.6 | 4.3 | 0.00 | 0.21 | 0.21 | 96 | 1003.6 |
| 20260506144604 | 44 | 113 | 1.7 | 5.2 | 0.01 | 0.21 | 0.21 | 96 | 1003.4 |
| 20260506143058 | 44 | 153 | 2.6 | 6.1 | 0.01 | 0.21 | 0.21 | 97 | 1003.4 |
| 20260506141540 | 43 | 137 | 1.7 | 3.5 | 0.01 | 0.21 | 0.21 | 97 | 1003.6 |
| 20260506140040 | 43 | 128 | 0.0 | 0.0 | 0.01 | 0.21 | 0.21 | 97 | 1003.5 |
| 20260506134521 | 42 | 128 | 0.0 | 0.9 | 0.01 | 0.20 | 0.20 | 97 | 1003.7 |
| 20260506133020 | 42 | 128 | 0.0 | 1.7 | 0.01 | 0.20 | 0.20 | 97 | 1003.8 |
| 20260506131501 | 42 | 128 | 0.0 | 3.5 | 0.01 | 0.20 | 0.20 | 97 | 1003.3 |
| 20260506130000 | 42 | 126 | 0.9 | 3.5 | 0.02 | 0.20 | 0.20 | 97 | 1003.0 |
| 20260506124543 | 41 | 192 | 0.0 | 0.9 | 0.01 | 0.19 | 0.19 | 97 | 1003.3 |
| 20260506123042 | 41 | 192 | 0.0 | 1.7 | 0.02 | 0.19 | 0.19 | 97 | 1002.9 |
| 20260506121524 | 41 | 192 | 0.0 | 0.0 | 0.03 | 0.19 | 0.19 | 97 | 1002.9 |
| 20260506120024 | 41 | 192 | 0.0 | 0.0 | 0.03 | 0.18 | 0.18 | 97 | 1003.0 |
| 20260506114517 | 41 | 192 | 0.0 | 1.7 | 0.03 | 0.18 | 0.18 | 97 | 1003.0 |
| 20260506113016 | 40 | 192 | 0.0 | 1.7 | 0.02 | 0.17 | 0.17 | 97 | 1003.0 |
| 20260506111548 | 40 | 192 | 0.0 | 1.7 | 0.01 | 0.16 | 0.16 | 97 | 1002.9 |
| 20260506110147 | 40 | 192 | 0.0 | 1.7 | 0.00 | 0.15 | 0.15 | 97 | 1002.6 |
| 20260506104533 | 40 | 192 | 0.0 | 1.7 | 0.00 | 0.15 | 0.15 | 96 | 1002.3 |
| 20260506103028 | 40 | 195 | 0.0 | 3.5 | 0.00 | 0.15 | 0.15 | 96 | 1002.5 |
| 20260506101511 | 41 | 195 | 0.0 | 0.0 | 0.00 | 0.15 | 0.15 | 96 | 1002.6 |
| 20260506100011 | 40 | 195 | 0.0 | 0.0 | 0.01 | 0.15 | 0.15 | 96 | 1002.6 |
| 20260506094552 | 40 | 195 | 0.0 | 0.0 | 0.01 | 0.15 | 0.15 | 96 | 1002.6 |
| 20260506093052 | 40 | 195 | 0.0 | 0.0 | 0.01 | 0.15 | 0.15 | 96 | 1002.5 |
| 20260506091535 | 41 | 195 | 0.0 | 0.0 | 0.01 | 0.15 | 0.15 | 96 | 1002.9 |
| 20260506090034 | 41 | 195 | 0.0 | 0.0 | 0.01 | 0.14 | 0.14 | 96 | 1002.8 |
| 20260506084514 | 41 | 195 | 0.0 | 0.9 | 0.02 | 0.14 | 0.14 | 96 | 1002.9 |
| 20260506083013 | 41 | 134 | 1.7 | 6.1 | 0.02 | 0.14 | 0.14 | 96 | 1002.7 |
| 20260506081557 | 41 | 180 | 1.7 | 5.2 | 0.04 | 0.14 | 0.14 | 95 | 1002.6 |
| 20260506080105 | 41 | 180 | 1.7 | 3.5 | 0.03 | 0.13 | 0.13 | 95 | 1002.5 |
| 20260506073033 | 42 | 237 | 0.9 | 1.7 | 0.03 | 0.11 | 0.11 | 94 | 1002.7 |
| 20260506071514 | 42 | 237 | 0.0 | 1.7 | 0.02 | 0.10 | 0.10 | 94 | 1002.7 |